Clintonville, WI

9:57 AM CST on February 24, 2017 (GMT -0600)
Clintonville Municipal

Weather History for KCLI - February, 2013

Change the Weather History Date:

Monday, February 4, 2013

  Actual Average Record
Temperature  
Mean Temperature 10 °F -  
Max Temperature 17 °F 26 °F 48 °F (1991)
Min Temperature 3 °F 5 °F -16 °F (1965)
Degree Days  
Heating Degree Days 55    
Moisture  
Dew Point 0 °F    
Average Humidity 69    
Maximum Humidity 85    
Minimum Humidity 45    
Precipitation  
Precipitation 0.00 in - - ()
Sea Level Pressure  
Sea Level Pressure 29.94 in    
Wind  
Wind Speed 1 mph (WSW)    
Max Wind Speed 8 mph    
Max Gust Speed -    
Visibility 10 miles    
Events      
Averages and records for this station are not official NWS values.
T = Trace of Precipitation, MM = Missing Value Source: NWS Daily Summary

Daily Weather History Graph

Daily Weather History Graph

Search for Another Location

Airport or City:

Trip Planner

Search our weather history database for the weather conditions in past years. The results will help you decide how hot, cold, wet, or windy it might be!

Date:

Astronomy

Feb. 04, 2013 Rise Set
Actual Time 7:09 AM CST 5:08 PM CST
Civil Twilight 6:39 AM CST 5:39 PM CST
Nautical Twilight 6:04 AM CST 6:13 PM CST
Astronomical Twilight 5:30 AM CST 6:48 PM CST
Moon 1:48 AM CST (2/4) 11:28 AM CST (2/4)
Length of Visible Light 11h 00m
Length of Day
9h 58m
Last Quarter, 37% of the Moon is Illuminated
Feb 4
Last Quarter
Feb 10
New
Feb 17
First Quarter
Feb 25
Full
Mar 4
Last Quarter

Hourly Weather History & Observations

Time (CST) Temp. Windchill Dew Point Humidity Pressure Visibility Wind Dir Wind Speed Gust Speed Precip Events Conditions
12:15 AM 5.0 °F - 1.4 °F 85% 29.99 in 10.0 mi Calm Calm - N/A   Overcast
12:35 AM 6.8 °F - 1.4 °F 79% 29.98 in 10.0 mi Calm Calm - N/A   Overcast
12:55 AM 5.0 °F - 1.4 °F 85% 29.98 in 10.0 mi Calm Calm - N/A   Overcast
1:15 AM 5.0 °F - 1.4 °F 85% 29.98 in 10.0 mi Calm Calm - N/A   Overcast
1:35 AM 5.0 °F - 1.4 °F 85% 29.97 in 10.0 mi Calm Calm - N/A   Overcast
1:55 AM 5.0 °F - -0.4 °F 78% 29.97 in 10.0 mi Calm Calm - N/A   Overcast
2:15 AM 5.0 °F - -0.4 °F 78% 29.97 in 10.0 mi Calm Calm - N/A   Overcast
2:35 AM 5.0 °F - -0.4 °F 78% 29.97 in 10.0 mi Calm Calm - N/A   Overcast
2:55 AM 5.0 °F - 1.4 °F 85% 29.97 in 10.0 mi Calm Calm - N/A   Overcast
3:15 AM 6.8 °F - -0.4 °F 72% 29.96 in 10.0 mi Calm Calm - N/A   Overcast
4:55 AM 6.8 °F - 1.4 °F 79% 29.96 in 10.0 mi Calm Calm - N/A   Overcast
5:15 AM 6.8 °F - 1.4 °F 79% 29.95 in 10.0 mi Calm Calm - N/A   Overcast
5:35 AM 5.0 °F -2.1 °F -0.4 °F 78% 29.96 in 10.0 mi NNE 3.5 mph - N/A   Overcast
5:55 AM 5.0 °F -4.1 °F -0.4 °F 78% 29.96 in 10.0 mi North 4.6 mph - N/A   Mostly Cloudy
6:15 AM 5.0 °F - -0.4 °F 78% 29.97 in 10.0 mi Calm Calm - N/A   Mostly Cloudy
6:35 AM 5.0 °F - -0.4 °F 78% 29.97 in 10.0 mi Calm Calm - N/A   Overcast
6:55 AM 5.0 °F -2.1 °F -0.4 °F 78% 29.97 in 10.0 mi North 3.5 mph - N/A   Overcast
7:15 AM 5.0 °F - -0.4 °F 78% 29.97 in 10.0 mi Calm Calm - N/A   Overcast
7:35 AM 3.2 °F - -2.2 °F 78% 29.97 in 10.0 mi Calm Calm - N/A   Scattered Clouds
7:55 AM 3.2 °F - -0.4 °F 85% 29.98 in 10.0 mi Calm Calm - N/A   Scattered Clouds
8:15 AM 5.0 °F - -2.2 °F 72% 29.98 in 7.0 mi Calm Calm - N/A   Scattered Clouds
8:35 AM 6.8 °F -0.1 °F -2.2 °F 67% 29.98 in 10.0 mi North 3.5 mph - N/A   Clear
8:55 AM 8.6 °F 2.0 °F -0.4 °F 67% 29.98 in 10.0 mi North 3.5 mph - N/A   Clear
9:15 AM 8.6 °F 0.1 °F -0.4 °F 67% 29.98 in 10.0 mi NE 4.6 mph - N/A   Clear
9:35 AM 8.6 °F 2.0 °F -0.4 °F 67% 29.98 in 10.0 mi NNE 3.5 mph - N/A   Clear
9:55 AM 10.4 °F 0.8 °F 1.4 °F 67% 29.98 in 1.0 mi NNE 5.8 mph - N/A   Haze
10:15 AM 10.4 °F 4.0 °F 1.4 °F 67% 29.99 in 10.0 mi North 3.5 mph - N/A   Clear
10:35 AM 12.2 °F 6.1 °F 1.4 °F 62% 29.98 in 10.0 mi North 3.5 mph - N/A   Clear
10:55 AM 12.2 °F 4.3 °F 1.4 °F 62% 29.99 in 10.0 mi NNE 4.6 mph - N/A   Clear
11:15 AM 12.2 °F 6.1 °F 1.4 °F 62% 29.98 in 10.0 mi NNE 3.5 mph - N/A   Clear
11:35 AM 12.2 °F 6.1 °F 1.4 °F 62% 29.98 in 10.0 mi NW 3.5 mph - N/A   Clear
11:55 AM 14.0 °F - 1.4 °F 57% 29.97 in 10.0 mi Calm Calm - N/A   Clear
12:15 PM 14.0 °F - 1.4 °F 57% 29.97 in 10.0 mi Calm Calm - N/A   Clear
12:35 PM 14.0 °F - 1.4 °F 57% 29.96 in 10.0 mi Calm Calm - N/A   Clear
12:55 PM 15.8 °F - 1.4 °F 53% 29.96 in 10.0 mi Calm Calm - N/A   Clear
1:15 PM 15.8 °F 8.6 °F 1.4 °F 53% 29.96 in 10.0 mi WSW 4.6 mph - N/A   Clear
1:35 PM 15.8 °F - 1.4 °F 53% 29.94 in 10.0 mi Calm Calm - N/A   Clear
1:55 PM 17.6 °F - 1.4 °F 49% 29.92 in 10.0 mi Calm Calm - N/A   Clear
2:15 PM 17.6 °F 12.3 °F -0.4 °F 45% 29.91 in 10.0 mi SW 3.5 mph - N/A   Clear
2:35 PM 17.6 °F 9.3 °F 1.4 °F 49% 29.91 in 10.0 mi South 5.8 mph - N/A   Clear
2:55 PM 17.6 °F 7.3 °F 3.2 °F 53% 29.91 in 10.0 mi South 8.1 mph - N/A   Clear
3:15 PM 17.6 °F 7.3 °F 1.4 °F 49% 29.91 in 10.0 mi South 8.1 mph - N/A   Clear
3:35 PM 17.6 °F 9.3 °F 1.4 °F 49% 29.91 in 10.0 mi South 5.8 mph - N/A   Clear
3:55 PM 17.6 °F 8.2 °F 3.2 °F 53% 29.91 in 10.0 mi South 6.9 mph - N/A   Clear
4:15 PM 15.8 °F 7.2 °F 3.2 °F 58% 29.91 in 10.0 mi South 5.8 mph - N/A   Clear
4:35 PM 14.0 °F 6.5 °F 1.4 °F 57% 29.91 in 10.0 mi South 4.6 mph - N/A   Clear
4:55 PM 14.0 °F - 1.4 °F 57% 29.91 in 10.0 mi Calm Calm - N/A   Clear
5:15 PM 12.2 °F - 1.4 °F 62% 29.91 in 10.0 mi Calm Calm - N/A   Clear
5:35 PM 10.4 °F - 1.4 °F 67% 29.91 in 10.0 mi Calm Calm - N/A   Clear
5:55 PM 8.6 °F - -0.4 °F 67% 29.91 in 10.0 mi Calm Calm - N/A   Clear
6:15 PM 8.6 °F - 1.4 °F 73% 29.92 in 10.0 mi Calm Calm - N/A   Clear
6:35 PM 6.8 °F - -0.4 °F 72% 29.92 in 10.0 mi Calm Calm - N/A   Clear
6:55 PM 6.8 °F - -0.4 °F 72% 29.92 in 10.0 mi Calm Calm - N/A   Clear
7:15 PM 5.0 °F - -0.4 °F 78% 29.93 in 10.0 mi Calm Calm - N/A   Clear
7:35 PM 5.0 °F -2.1 °F -2.2 °F 72% 29.93 in 10.0 mi WSW 3.5 mph - N/A   Clear
7:55 PM 5.0 °F -2.1 °F -2.2 °F 72% 29.92 in 10.0 mi South 3.5 mph - N/A   Clear
8:15 PM 5.0 °F -2.1 °F -2.2 °F 72% 29.93 in 10.0 mi WSW 3.5 mph - N/A   Clear
8:35 PM 5.0 °F - -2.2 °F 72% 29.92 in 10.0 mi Calm Calm - N/A   Clear
8:55 PM 5.0 °F - -2.2 °F 72% 29.92 in 10.0 mi Calm Calm - N/A   Clear
9:15 PM 8.6 °F - -2.2 °F 62% 29.90 in 10.0 mi Calm Calm - N/A   Clear
9:35 PM 5.0 °F - -2.2 °F 72% 29.90 in 10.0 mi Calm Calm - N/A   Clear
9:55 PM 5.0 °F -4.1 °F -4.0 °F 66% 29.90 in 10.0 mi WSW 4.6 mph - N/A   Clear
10:15 PM 5.0 °F -4.1 °F -4.0 °F 66% 29.90 in 10.0 mi SW 4.6 mph - N/A   Clear
10:35 PM 3.2 °F - -2.2 °F 78% 29.89 in 10.0 mi Calm Calm - N/A   Clear
10:55 PM 3.2 °F -4.2 °F -2.2 °F 78% 29.89 in 10.0 mi SW 3.5 mph - N/A   Clear
11:15 PM 3.2 °F - -4.0 °F 72% 29.89 in 10.0 mi Calm Calm - N/A   Clear
11:35 PM 3.2 °F - -4.0 °F 72% 29.88 in 10.0 mi Calm Calm - N/A   Clear
11:55 PM 3.2 °F -4.2 °F -4.0 °F 72% 29.87 in 10.0 mi South 3.5 mph - N/A   Clear